Hourly Weather Galapagar

Today, 8 August, Saturday

Time Temperature Precipitation Wind Pressure Humidity
00:00 +29°C° 0 mm 1 mps 692 mmHg 33%
01:00 +28°C° 0 mm 1 mps 692 mmHg 34%
02:00 +27°C° 0 mm 1 mps 692 mmHg 36%
03:00 +26°C° 0 mm 1 mps 691 mmHg 38%
04:00 +26°C° 0 mm 1 mps 692 mmHg 39%
05:00 +26°C° 0 mm 1 mps 692 mmHg 39%
06:00 +26°C° 0 mm 1 mps 692 mmHg 40%
07:00 +27°C° 0 mm 1 mps 692 mmHg 37%
08:00 +29°C° 0 mm 1 mps 692 mmHg 33%
09:00 +31°C° 0 mm 1 mps 693 mmHg 29%
10:00 +32°C° 0 mm 2 mps 693 mmHg 27%
11:00 +35°C° 0 mm 3 mps 693 mmHg 25%
12:00 +36°C° 0 mm 4 mps 693 mmHg 22%
13:00 +36°C° 0 mm 5 mps 692 mmHg 21%
14:00 +36°C° 0 mm 6 mps 692 mmHg 21%
15:00 +36°C° 0 mm 7 mps 692 mmHg 20%
16:00 +35°C° 0 mm 6 mps 692 mmHg 21%
17:00 +35°C° 0 mm 5 mps 692 mmHg 23%
18:00 +34°C° 0 mm 3 mps 692 mmHg 24%
19:00 +31°C° 0 mm 3 mps 692 mmHg 27%
20:00 +29°C° 0 mm 2 mps 692 mmHg 30%
21:00 +28°C° 0 mm 1 mps 692 mmHg 34%
22:00 +27°C° 0 mm 1 mps 691 mmHg 35%
23:00 +27°C° 0 mm 2 mps 691 mmHg 37%

Tomorrow, 9 August, Sunday

Time Temperature Precipitation Wind Pressure Humidity
00:00 +27°C° 0 mm 3 mps 691 mmHg 38%
01:00 +26°C° 0 mm 2 mps 691 mmHg 40%
02:00 +26°C° 0 mm 2 mps 690 mmHg 41%
03:00 +25°C° 0 mm 2 mps 690 mmHg 43%
04:00 +25°C° 0 mm 2 mps 690 mmHg 44%
05:00 +25°C° 0 mm 2 mps 690 mmHg 44%
06:00 +25°C° 0 mm 2 mps 690 mmHg 45%
07:00 +27°C° 0 mm 2 mps 690 mmHg 40%
08:00 +29°C° 0 mm 2 mps 690 mmHg 35%
09:00 +31°C° 0 mm 3 mps 691 mmHg 30%
10:00 +34°C° 0 mm 3 mps 690 mmHg 27%
11:00 +35°C° 0 mm 3 mps 690 mmHg 24%
12:00 +36°C° 0 mm 4 mps 690 mmHg 21%
13:00 +37°C° 0 mm 4 mps 689 mmHg 19%
14:00 +39°C° 0 mm 5 mps 689 mmHg 17%
15:00 +39°C° 0 mm 5 mps 688 mmHg 15%
16:00 +39°C° 0 mm 6 mps 688 mmHg 15%
17:00 +38°C° 0 mm 6 mps 688 mmHg 15%
18:00 +38°C° 0 mm 6 mps 687 mmHg 15%
19:00 +35°C° 0 mm 5 mps 687 mmHg 17%
20:00 +33°C° 0 mm 3 mps 688 mmHg 19%
21:00 +30°C° 0 mm 2 mps 688 mmHg 21%
22:00 +29°C° 0 mm 2 mps 688 mmHg 22%
23:00 +28°C° 0 mm 2 mps 687 mmHg 24%

Day after tomorrow, 10 August, Monday

Time Temperature Precipitation Wind Pressure Humidity
00:00 +27°C° 0 mm 2 mps 687 mmHg 25%
01:00 +27°C° 0 mm 2 mps 687 mmHg 27%
02:00 +26°C° 0 mm 1 mps 687 mmHg 28%
03:00 +25°C° 0 mm 1 mps 687 mmHg 29%
04:00 +25°C° 0 mm 1 mps 687 mmHg 31%
05:00 +24°C° 0 mm 1 mps 687 mmHg 32%
06:00 +24°C° 0 mm 1 mps 687 mmHg 33%
07:00 +26°C° 0 mm 2 mps 687 mmHg 29%
08:00 +28°C° 0 mm 2 mps 687 mmHg 25%
09:00 +30°C° 0 mm 3 mps 688 mmHg 21%
10:00 +33°C° 0 mm 4 mps 688 mmHg 19%
11:00 +34°C° 0 mm 4 mps 688 mmHg 17%
12:00 +35°C° 0 mm 5 mps 688 mmHg 14%
13:00 +36°C° 0 mm 5 mps 687 mmHg 14%
14:00 +36°C° 0 mm 5 mps 687 mmHg 13%
15:00 +37°C° 0 mm 5 mps 686 mmHg 12%
16:00 +36°C° 0 mm 5 mps 686 mmHg 13%
17:00 +36°C° 0 mm 5 mps 686 mmHg 14%
18:00 +35°C° 0 mm 4 mps 686 mmHg 15%
19:00 +33°C° 0 mm 3 mps 686 mmHg 16%
20:00 +30°C° 0 mm 3 mps 686 mmHg 18%
21:00 +28°C° 0 mm 2 mps 686 mmHg 20%
22:00 +28°C° 0 mm 2 mps 686 mmHg 21%
23:00 +27°C° 0 mm 1 mps 686 mmHg 21%

11 August, Tuesday

Time Temperature Precipitation Wind Pressure Humidity
00:00 +26°C° 0 mm 1 mps 686 mmHg 22%
01:00 +25°C° 0 mm 1 mps 686 mmHg 24%
02:00 +25°C° 0 mm 1 mps 686 mmHg 26%
03:00 +24°C° 0 mm 1 mps 686 mmHg 27%
04:00 +24°C° 0 mm 1 mps 686 mmHg 30%
05:00 +23°C° 0 mm 1 mps 686 mmHg 32%
06:00 +23°C° 0 mm 1 mps 686 mmHg 34%
07:00 +25°C° 0 mm 1 mps 687 mmHg 30%
08:00 +27°C° 0 mm 2 mps 687 mmHg 27%
09:00 +29°C° 0 mm 2 mps 688 mmHg 23%
10:00 +31°C° 0 mm 3 mps 688 mmHg 21%
11:00 +33°C° 0 mm 4 mps 688 mmHg 20%
12:00 +34°C° 0 mm 4 mps 687 mmHg 19%
13:00 +35°C° 0 mm 5 mps 687 mmHg 19%
14:00 +35°C° 0 mm 5 mps 687 mmHg 19%
15:00 +36°C° 0 mm 5 mps 686 mmHg 19%
16:00 +35°C° 0 mm 5 mps 686 mmHg 19%
17:00 +35°C° 0 mm 5 mps 686 mmHg 20%
18:00 +34°C° 0 mm 5 mps 686 mmHg 20%
19:00 +32°C° 0 mm 4 mps 686 mmHg 22%
20:00 +29°C° 0 mm 3 mps 686 mmHg 23%
21:00 +27°C° 0 mm 2 mps 686 mmHg 24%
22:00 +27°C° 0 mm 2 mps 687 mmHg 25%
23:00 +26°C° 0 mm 2 mps 687 mmHg 26%

12 August, Wednesday

Time Temperature Precipitation Wind Pressure Humidity
00:00 +25°C° 0 mm 2 mps 687 mmHg 27%
01:00 +24°C° 0 mm 2 mps 687 mmHg 30%
02:00 +23°C° 0 mm 2 mps 686 mmHg 32%
03:00 +22°C° 0 mm 1 mps 686 mmHg 34%
04:00 +22°C° 0 mm 1 mps 686 mmHg 35%
05:00 +22°C° 0 mm 1 mps 686 mmHg 36%
06:00 +21°C° 0 mm 1 mps 687 mmHg 38%
07:00 +23°C° 0 mm 2 mps 687 mmHg 33%
08:00 +25°C° 0 mm 2 mps 688 mmHg 29%
09:00 +27°C° 0 mm 3 mps 688 mmHg 25%
10:00 +28°C° 0 mm 3 mps 688 mmHg 22%
11:00 +30°C° 0 mm 4 mps 688 mmHg 19%
12:00 +32°C° 0 mm 4 mps 688 mmHg 16%
13:00 +32°C° 0 mm 4 mps 688 mmHg 15%
14:00 +33°C° 0 mm 4 mps 688 mmHg 14%
15:00 +33°C° 0 mm 4 mps 687 mmHg 14%
16:00 +33°C° 0 mm 4 mps 687 mmHg 15%
17:00 +33°C° 0 mm 3 mps 687 mmHg 15%
18:00 +31°C° 0 mm 3 mps 687 mmHg 16%
19:00 +29°C° 0 mm 3 mps 688 mmHg 21%
20:00 +27°C° 0 mm 2 mps 688 mmHg 25%
21:00 +25°C° 0 mm 2 mps 688 mmHg 30%
22:00 +24°C° 0 mm 2 mps 688 mmHg 35%
23:00 +23°C° 0 mm 2 mps 688 mmHg 41%

13 August, Thursday

Time Temperature Precipitation Wind Pressure Humidity
00:00 +23°C° 0 mm 2 mps 688 mmHg 46%
01:00 +21°C° 0 mm 2 mps 688 mmHg 51%
02:00 +21°C° 0 mm 2 mps 688 mmHg 55%
03:00 +20°C° 0 mm 2 mps 688 mmHg 59%
04:00 +20°C° 0 mm 2 mps 688 mmHg 61%
05:00 +20°C° 0 mm 2 mps 688 mmHg 64%
06:00 +19°C° 0 mm 2 mps 688 mmHg 66%
07:00 +21°C° 0 mm 2 mps 689 mmHg 58%
08:00 +25°C° 0 mm 2 mps 689 mmHg 50%
09:00 +27°C° 0 mm 2 mps 689 mmHg 42%
10:00 +28°C° 0 mm 2 mps 689 mmHg 36%
11:00 +30°C° 0 mm 2 mps 689 mmHg 29%
12:00 +31°C° 0 mm 2 mps 690 mmHg 22%
13:00 +32°C° 0 mm 2 mps 689 mmHg 20%
14:00 +34°C° 0 mm 3 mps 689 mmHg 19%
15:00 +34°C° 0 mm 3 mps 688 mmHg 17%
16:00 +34°C° 0 mm 3 mps 688 mmHg 17%
17:00 +33°C° 0 mm 3 mps 688 mmHg 17%
18:00 +32°C° 0 mm 2 mps 688 mmHg 18%
19:00 +30°C° 0 mm 2 mps 688 mmHg 20%
20:00 +28°C° 0 mm 1 mps 688 mmHg 23%
21:00 +26°C° 0 mm 1 mps 688 mmHg 25%
22:00 +26°C° 0 mm 1 mps 688 mmHg 29%
23:00 +25°C° 0 mm 2 mps 688 mmHg 32%
Show more